| time (UTC) | temp C | wind direction | speed KPH | gust KPH | rain 1hr cm | rain 24hr cm | rain mn cm | humidity % | barometer mb |
| 20260505041538 | 12 | 180 | 0.0 | 0.0 | 0.00 | 0.00 | 0.00 | 84 | 1010.5 |
| 20260505041019 | 12 | 180 | 0.0 | 0.0 | 0.00 | 0.00 | 0.00 | 84 | 1010.5 |
| 20260505040511 | 12 | 180 | 0.0 | 0.0 | 0.00 | 0.00 | 0.00 | 84 | 1010.6 |
| 20260505035959 | 12 | 180 | 0.0 | 0.0 | 0.00 | 0.00 | 0.00 | 84 | 1010.6 |
| 20260505033919 | 12 | 180 | 0.0 | 0.0 | 0.00 | 0.00 | 0.00 | 82 | 1010.5 |
| 20260505033411 | 12 | 180 | 0.0 | 0.0 | 0.00 | 0.00 | 0.00 | 82 | 1010.5 |
| 20260505032348 | 12 | 180 | 0.0 | 0.0 | 0.00 | 0.00 | 0.00 | 82 | 1010.3 |
| 20260505031840 | 12 | 180 | 0.0 | 0.0 | 0.00 | 0.00 | 0.00 | 81 | 1010.1 |
| 20260505031330 | 12 | 180 | 0.0 | 0.0 | 0.00 | 0.00 | 0.00 | 81 | 1010.4 |
| 20260505030818 | 13 | 180 | 0.0 | 0.0 | 0.00 | 0.00 | 0.00 | 80 | 1010.1 |
| 20260505030310 | 13 | 180 | 0.0 | 0.0 | 0.00 | 0.00 | 0.00 | 79 | 1010.2 |
| 20260505025249 | 12 | 180 | 0.0 | 0.0 | 0.00 | 0.00 | 0.00 | 82 | 1010.2 |
| 20260505024738 | 12 | 180 | 0.0 | 0.0 | 0.00 | 0.00 | 0.00 | 81 | 1010.4 |
| 20260505024227 | 12 | 180 | 0.0 | 0.0 | 0.00 | 0.00 | 0.00 | 81 | 1010.4 |
| 20260505023209 | 12 | 180 | 0.0 | 0.0 | 0.00 | 0.00 | 0.00 | 82 | 1010.2 |
| 20260505022657 | 12 | 180 | 0.0 | 0.0 | 0.00 | 0.00 | 0.00 | 83 | 1010.5 |
| 20260505021639 | 12 | 180 | 0.0 | 0.0 | 0.00 | 0.00 | 0.00 | 82 | 1010.3 |
| 20260505021128 | 12 | 180 | 0.0 | 0.0 | 0.00 | 0.00 | 0.00 | 82 | 1010.4 |
| 20260505020615 | 12 | 180 | 0.0 | 0.0 | 0.00 | 0.00 | 0.00 | 81 | 1010.3 |
| 20260505015625 | 12 | 203 | 0.0 | 0.0 | 0.00 | 0.00 | 0.00 | 81 | 1010.3 |
| 20260505015113 | 12 | 225 | 0.0 | 0.0 | 0.00 | 0.00 | 0.00 | 80 | 1010.2 |
| 20260505014055 | 12 | 180 | 0.0 | 0.0 | 0.00 | 0.00 | 0.00 | 79 | 1009.9 |
| 20260505013545 | 12 | 180 | 0.0 | 0.0 | 0.00 | 0.00 | 0.00 | 78 | 1010.0 |
| 20260505013032 | 13 | 180 | 0.0 | 0.0 | 0.00 | 0.00 | 0.00 | 77 | 1010.1 |
| 20260505012522 | 13 | 180 | 0.0 | 0.0 | 0.00 | 0.00 | 0.00 | 76 | 1009.9 |
| 20260505011502 | 13 | 180 | 0.0 | 0.0 | 0.00 | 0.00 | 0.00 | 75 | 1009.8 |
| 20260505010954 | 13 | 180 | 0.0 | 0.0 | 0.00 | 0.00 | 0.00 | 75 | 1010.0 |
| 20260505005931 | 13 | 180 | 0.0 | 0.0 | 0.00 | 0.00 | 0.00 | 74 | 1009.8 |
| 20260505005422 | 13 | 180 | 0.0 | 0.0 | 0.00 | 0.00 | 0.00 | 75 | 1009.7 |
| 20260505004912 | 13 | 180 | 0.0 | 0.0 | 0.00 | 0.00 | 0.00 | 74 | 1009.7 |
| 20260505004401 | 13 | 180 | 0.0 | 0.0 | 0.00 | 0.00 | 0.00 | 73 | 1009.5 |
| 20260505003341 | 13 | 180 | 0.0 | 0.0 | 0.00 | 0.00 | 0.00 | 72 | 1009.5 |
| 20260505002831 | 13 | 180 | 0.0 | 0.0 | 0.00 | 0.00 | 0.00 | 71 | 1009.5 |
| 20260505002321 | 13 | 180 | 0.0 | 0.0 | 0.00 | 0.00 | 0.00 | 70 | 1009.4 |
| 20260505001813 | 14 | 180 | 0.0 | 0.0 | 0.00 | 0.00 | 0.00 | 70 | 1009.3 |
| 20260505001301 | 14 | 180 | 0.0 | 0.0 | 0.00 | 0.00 | 0.00 | 70 | 1009.1 |
| 20260505000750 | 13 | 180 | 0.0 | 0.0 | 0.00 | 0.00 | 0.00 | 70 | 1009.3 |
| 20260505000241 | 13 | 180 | 0.0 | 0.0 | 0.00 | 0.00 | 0.00 | 71 | 1009.3 |
| 20260504235733 | 14 | 180 | 0.0 | 0.0 | 0.00 | 0.00 | 0.00 | 69 | 1009.3 |
| 20260504235220 | 14 | 180 | 0.0 | 0.0 | 0.00 | 0.00 | 0.00 | 68 | 1009.3 |
| 20260504234711 | 14 | 180 | 0.0 | 0.0 | 0.00 | 0.00 | 0.00 | 68 | 1009.4 |
| 20260504234200 | 14 | 180 | 0.0 | 0.0 | 0.00 | 0.00 | 0.00 | 70 | 1009.3 |
| 20260504233649 | 14 | 180 | 0.0 | 0.0 | 0.00 | 0.00 | 0.00 | 70 | 1009.3 |
| 20260504233139 | 14 | 180 | 0.0 | 0.0 | 0.00 | 0.00 | 0.00 | 71 | 1009.1 |
| 20260504232629 | 14 | 180 | 0.0 | 0.0 | 0.00 | 0.00 | 0.00 | 71 | 1009.1 |
| 20260504232122 | 15 | 180 | 0.0 | 0.0 | 0.00 | 0.00 | 0.00 | 68 | 1009.2 |
| 20260504231612 | 16 | 180 | 0.0 | 0.0 | 0.00 | 0.00 | 0.00 | 62 | 1009.0 |
| 20260504230552 | 16 | 180 | 0.0 | 0.0 | 0.00 | 0.00 | 0.00 | 62 | 1008.8 |
| 20260504230039 | 15 | 180 | 0.0 | 0.0 | 0.00 | 0.00 | 0.00 | 64 | 1008.8 |
| 20260504225529 | 16 | 180 | 0.0 | 0.0 | 0.00 | 0.00 | 0.00 | 64 | 1008.7 |
| 20260504225019 | 16 | 180 | 0.0 | 0.0 | 0.00 | 0.00 | 0.00 | 62 | 1008.5 |
| 20260504224515 | 16 | 180 | 0.0 | 0.0 | 0.00 | 0.00 | 0.00 | 62 | 1008.3 |
| 20260504223959 | 16 | 180 | 0.0 | 0.0 | 0.00 | 0.00 | 0.00 | 63 | 1008.6 |
| 20260504223451 | 16 | 180 | 0.0 | 0.0 | 0.00 | 0.00 | 0.00 | 64 | 1008.6 |
| 20260504222432 | 16 | 180 | 0.0 | 0.0 | 0.00 | 0.00 | 0.00 | 64 | 1008.4 |
| 20260504221918 | 16 | 203 | 0.0 | 0.0 | 0.00 | 0.00 | 0.00 | 64 | 1008.3 |
| 20260504221408 | 16 | 203 | 0.0 | 0.0 | 0.00 | 0.00 | 0.00 | 63 | 1008.4 |
| 20260504220900 | 16 | 203 | 0.0 | 0.0 | 0.00 | 0.00 | 0.00 | 63 | 1008.5 |
| 20260504220352 | 16 | 203 | 0.0 | 0.0 | 0.00 | 0.00 | 0.00 | 62 | 1008.3 |
| 20260504215838 | 16 | 203 | 0.0 | 0.0 | 0.00 | 0.00 | 0.00 | 61 | 1008.4 |
| 20260504215328 | 17 | 203 | 0.0 | 0.0 | 0.00 | 0.00 | 0.00 | 60 | 1008.5 |
| 20260504214817 | 18 | 293 | 0.0 | 0.0 | 0.00 | 0.00 | 0.00 | 57 | 1008.4 |
| 20260504214307 | 18 | 293 | 0.0 | 0.0 | 0.00 | 0.00 | 0.00 | 54 | 1008.3 |
| 20260504213248 | 19 | 293 | 0.0 | 0.0 | 0.00 | 0.00 | 0.00 | 53 | 1008.2 |
| 20260504212737 | 19 | 293 | 0.0 | 0.0 | 0.00 | 0.00 | 0.00 | 52 | 1008.2 |
| 20260504212227 | 19 | 293 | 0.0 | 0.0 | 0.00 | 0.00 | 0.00 | 52 | 1008.3 |
| 20260504211717 | 19 | 293 | 0.0 | 0.0 | 0.00 | 0.00 | 0.00 | 52 | 1008.6 |
| 20260504211206 | 20 | 293 | 0.0 | 0.0 | 0.00 | 0.00 | 0.00 | 52 | 1008.4 |
| 20260504210146 | 20 | 293 | 0.0 | 0.0 | 0.00 | 0.00 | 0.00 | 50 | 1008.5 |
| 20260504204619 | 20 | 293 | 0.0 | 0.0 | 0.00 | 0.00 | 0.00 | 49 | 1008.4 |
| 20260504204106 | 20 | 293 | 0.0 | 0.0 | 0.00 | 0.00 | 0.00 | 49 | 1008.3 |
| 20260504203558 | 20 | 293 | 0.0 | 3.2 | 0.00 | 0.00 | 0.00 | 49 | 1008.3 |
| 20260504203049 | 21 | 293 | 0.0 | 3.2 | 0.00 | 0.00 | 0.00 | 48 | 1008.4 |
| 20260504202538 | 21 | 293 | 1.6 | 3.2 | 0.00 | 0.00 | 0.00 | 48 | 1008.5 |
| 20260504202029 | 21 | 293 | 0.0 | 3.2 | 0.00 | 0.00 | 0.00 | 47 | 1008.4 |
| 20260504201517 | 21 | 293 | 0.0 | 3.2 | 0.00 | 0.00 | 0.00 | 46 | 1008.4 |
| 20260504201006 | 21 | 293 | 0.0 | 3.2 | 0.00 | 0.00 | 0.00 | 46 | 1008.4 |
| 20260504195435 | 22 | 293 | 0.0 | 6.4 | 0.00 | 0.00 | 0.00 | 44 | 1008.3 |
| 20260504194415 | 22 | 293 | 0.0 | 6.4 | 0.00 | 0.00 | 0.00 | 43 | 1008.4 |
| 20260504193905 | 21 | 293 | 1.6 | 6.4 | 0.00 | 0.00 | 0.00 | 44 | 1008.4 |
| 20260504193355 | 22 | 293 | 0.0 | 6.4 | 0.00 | 0.00 | 0.00 | 44 | 1008.5 |
| 20260504192847 | 22 | 293 | 0.0 | 9.7 | 0.00 | 0.00 | 0.00 | 42 | 1008.6 |
| 20260504192335 | 22 | 293 | 3.2 | 9.7 | 0.00 | 0.00 | 0.00 | 42 | 1008.6 |
| 20260504191824 | 22 | 293 | 0.0 | 9.7 | 0.00 | 0.00 | 0.00 | 43 | 1008.5 |
| 20260504191314 | 21 | 293 | 0.0 | 6.4 | 0.00 | 0.00 | 0.00 | 42 | 1008.5 |
| 20260504190804 | 22 | 293 | 1.6 | 6.4 | 0.00 | 0.00 | 0.00 | 42 | 1008.6 |
| 20260504190257 | 22 | 293 | 1.6 | 6.4 | 0.00 | 0.00 | 0.00 | 41 | 1008.7 |
| 20260504185745 | 22 | 293 | 1.6 | 6.4 | 0.00 | 0.00 | 0.00 | 41 | 1008.4 |
| 20260504185235 | 21 | 293 | 0.0 | 6.4 | 0.00 | 0.00 | 0.00 | 41 | 1008.4 |
| 20260504184216 | 22 | 293 | 3.2 | 11.3 | 0.00 | 0.00 | 0.00 | 43 | 1008.4 |
| 20260504183707 | 23 | 293 | 3.2 | 11.3 | 0.00 | 0.00 | 0.00 | 41 | 1008.4 |
| 20260504183154 | 23 | 293 | 1.6 | 6.4 | 0.00 | 0.00 | 0.00 | 40 | 1008.4 |